Powrót do katalogu

STARLINK-33801

AktywnyŁącznośćVLEO
NORAD 63963·PAYLOAD·🇺🇸 United States

Wystrzelony May 13, 2025 z Cape Canaveral Space Force Station

Loading…

Następne Przeloty (najbliższe 24 godziny)

TLE

ŚwieżeSource: CelesTrak SupGP

Epoka: Sep 15, 2026, 02:27 UTC

1 63963C 25099M   26258.10256944 -.00025931  00000+0 -93937-3 0  2589
2 63963  42.9998 186.3800 0001710 274.6235 173.9183 15.27584881    16

Śledź STARLINK-33801 w czasie rzeczywistym z AllMySat

Download on the App Store